Terminal Aerodrome Forecast
Issued by NWS Charleston, WV

Home | Current Version | Previous Version | Text Only | Print | Product List | Glossary On
Versions: 1 2 3 4 5 6 7 8 9 10 11 12 13 14 15 16 17 18 19 20 21 22 23 24 25 26 27 28 29 30 31 32 33 34 35 36 37 38 39 40 41 42 43 44 45 46 47 48 49 50
000
FTUS41 KRLX 182330
TAFHTS
TAF
KHTS 182330Z 1900/1924 VRB03KT P6SM BKN180
     FM191500 19004KT P6SM SCT200
     FM191800 VRB03KT P6SM SCT100
     FM192300 00000KT P6SM SCT180=

USA.gov is the U.S. government's official web portal to all federal, state and local government web resources and services.